[ hide orbit diagram ]
For accurate long-term ephemerides, please instead use our Horizons system.This orbit viewer was implemented using two-body methods, and hence should not be used for determining accurate long-term trajectories (over several years or decades) or planetary encounter circumstances.
Orbital Elements at Epoch 2459200.5 (2020-Dec-17.0) TDB
Reference: JPL 37 (heliocentric ecliptic J2000)
Element | Value | Uncertainty (1-sigma) | Units |
e | .201631392855791 | 3.1157e-08 | |
a | 2.428937148095851 | 7.4208e-09 | au |
q | 1.939187167766112 | 7.5212e-08 | au |
i | 2.577865784505307 | 3.5752e-06 | deg |
node | 330.5614500358038 | 6.8107e-05 | deg |
peri | 1.749346569044936 | 6.8607e-05 | deg |
M | 270.3397431918792 | 1.1158e-05 | deg |
tp | 2459544.866042831171 (2021-Nov-26.36604283) | 4.3888e-05 | TDB |
period | 1382.683697689264 3.79 | 6.3365e-06 1.735e-08 | d yr |
n | .2603632346296052 | 1.1932e-09 | deg/d |
Q | 2.91868712842559 | 8.9171e-09 | au |
|
| | Orbit Determination Parameters
Additional Information
|
[ show covariance matrix ]
Physical Parameter Table
Parameter |
Symbol |
Value |
Units |
Sigma |
Reference |
Notes |
absolute magnitude |
H |
12.17 |
|
n/a |
E2021B10 |
IRAS observations used: 11 |
diameter |
diameter |
28.905 |
km |
0.401 |
urn:nasa:pds:neowise_diameters_albedos::2.0[mainbelt] (http://adsabs.harvard.edu/abs/2014ApJ...791..121M) |
|
rotation period |
rot_per |
43.296 |
h |
n/a |
LCDB (Rev. 2020-October); Warner et al., 2009 |
Result based on less than full coverage, so that the period may be wrong by 30 percent or so. Published Reference List: [Bembrick, C.; Byron, J. (2007) Minor Planet Bull. 34, 1.] [Hanus, J.; Broz, M.; Durech, J.; Warner, B.D.; et al. (2013) Astron. Astrophys. 559, A134.] [Durech, J.; Hanus, J.; Oszkiewsicz, D.; Vanco, R. (2016) Astron. Astrophys. 587, A48.] |
geometric albedo |
albedo |
0.034 |
|
0.007 |
urn:nasa:pds:neowise_diameters_albedos::2.0[mainbelt] (http://adsabs.harvard.edu/abs/2014ApJ...791..121M) |
|
B-V |
BV |
0.643 |
|
0.032 |
EAR-A-5-DDR-UBV-MEAN-VALUES-V1.2 |
#obs=4; phase (min.=11.94, mean=20.72, max.=25.94) deg. |
U-B |
UB |
0.225 |
|
0.038 |
EAR-A-5-DDR-UBV-MEAN-VALUES-V1.2 |
#obs=3; phase (min.=19.26, mean=23.65, max.=25.94) deg. |
Tholen spectral type |
spec_T |
F |
|
n/a |
EAR-A-5-DDR-TAXONOMY-V4.0 |
used 7 color indices; used ground-based radiometric albedo |
SMASSII spectral type |
spec_B |
Xc |
|
n/a |
EAR-A-5-DDR-TAXONOMY-V4.0 |
based on a high-resolution spectrum by Xu et al. (1995) or Bus and Binzel (2002) |
|
1493 Sigrid (1938 QB) Discovered 1938-Aug-26 by Delporte, E. at Uccle |
Reference: DISCOVERY.DB | Last Updated: 2003-08-29 |
|
[ show close-approach data ]
Alternate Designations
1938 QB = 1934 NB1 = 1934 PW = 1957 UT = 1961 TM1 = 1961 XL = 1977 UN = A908 WA = A916 YD |
|
|